sat.trackr.live / text

‹ back to catalog

KINEIS-2D

NORAD 62930 · 2025-028C

PAYLOAD ACTIVE UNKNOWN

§ Identity

Operator
Country
FR
Launch date
2025-02-08
Launch site
RLLB
Launch vehicle
Mass (kg)
RCS (m²)

External: N2YO · Heavens-Above · Gunter

§ Orbital elements

Epoch: 2026-09-22T16:25:48.493920Z

Period
97.57 min
Inclination
97.9192°
Eccentricity
0.0001983
Mean motion
14.75922619 rev/d
Perigee alt
640.8 km
Apogee alt
643.6 km
Semi-major
7,020.4 km
B*
1.2847e-4
RAAN
316.2202°
Arg perigee
233.5996°
Mean anomaly
126.5031°
Rev number
8,709

§ Raw data

KINEIS-2D1 62930U 25028C   26265.68458905  .00000833  00000+0  12847-3 0  99912 62930  97.9192 316.2202 0001983 233.5996 126.5031 14.75922619 87091

JSON: /api/v1/satellites/62930 · /tle

For live sub-satellite position, see the globe view (requires WebGL).

§ Visibility from observer

Set your observer location to see the next 7 days of passes ≥ 10°. The values pass through the URL so the page stays shareable.

No JS? Fill the form by hand. The geolocation button needs JavaScript.